SBI5116 URKK-UNNT

Flight info

Callsign SBI5116
Flight time N/A
Altitude 37000
Route SM B950 AG B549 IRGID A944 GUBOR G487 ERSAR DCT BEMES DCT ITAKA DCT OGANU N55 DAKIN B944 GOLIM
Aircraft A320/M-SDE2E3FGHIRWXY/LB1

Departure

Time 2026-05-09 13:17
Airport Krasnodar Pashkovsky International Airport (URKK)

Arrival

Time N/A
Airport Novosibirsk Tolmachevo Airport (UNNT)
Time Latitude Longitude Altitude Speed Heading
2026-05-09 12:46 45.03508 39.14224 106 ft 0 kts 332°
2026-05-09 13:03 45.03504 39.14227 106 ft 3 kts 332°
2026-05-09 13:04 45.03465 39.14255 105 ft 4 kts 18°
2026-05-09 13:04 45.03449 39.14234 104 ft 4 kts 61°
2026-05-09 13:04 45.03439 39.14208 104 ft 0 kts 62°
2026-05-09 13:06 45.03441 39.14214 106 ft 4 kts 62°
2026-05-09 13:07 45.03473 39.14297 106 ft 16 kts 58°
2026-05-09 13:07 45.03543 39.14472 106 ft 20 kts 61°
2026-05-09 13:07 45.03590 39.14592 106 ft 13 kts 60°
2026-05-09 13:07 45.03629 39.14691 106 ft 11 kts 60°
2026-05-09 13:08 45.03664 39.14777 105 ft 12 kts 60°
2026-05-09 13:08 45.03712 39.14898 106 ft 14 kts 61°
2026-05-09 13:08 45.03757 39.15011 106 ft 13 kts 60°
2026-05-09 13:08 45.03805 39.15132 106 ft 14 kts 61°
2026-05-09 13:09 45.03835 39.15238 106 ft 10 kts 90°
2026-05-09 13:09 45.03816 39.15325 106 ft 8 kts 111°
2026-05-09 13:09 45.03794 39.15400 105 ft 10 kts 112°
2026-05-09 13:09 45.03765 39.15497 105 ft 10 kts 112°
2026-05-09 13:10 45.03739 39.15611 105 ft 15 kts 99°
2026-05-09 13:10 45.03737 39.15770 106 ft 16 kts 88°
2026-05-09 13:10 45.03738 39.15932 106 ft 17 kts 89°
2026-05-09 13:10 45.03738 39.16069 106 ft 8 kts 91°
2026-05-09 13:11 45.03713 39.16128 106 ft 6 kts 139°
2026-05-09 13:11 45.03678 39.16165 106 ft 9 kts 143°
2026-05-09 13:11 45.03628 39.16217 106 ft 9 kts 143°
2026-05-09 13:11 45.03570 39.16280 106 ft 12 kts 143°
2026-05-09 13:12 45.03492 39.16364 106 ft 16 kts 141°
2026-05-09 13:12 45.03394 39.16469 106 ft 19 kts 142°
2026-05-09 13:12 45.03290 39.16585 106 ft 19 kts 143°
2026-05-09 13:12 45.03180 39.16702 105 ft 20 kts 143°
2026-05-09 13:13 45.03077 39.16817 106 ft 18 kts 140°
2026-05-09 13:13 45.02973 39.16928 106 ft 19 kts 146°
2026-05-09 13:13 45.02874 39.17034 106 ft 13 kts 143°
2026-05-09 13:13 45.02801 39.17112 106 ft 13 kts 142°
2026-05-09 13:14 45.02733 39.17189 106 ft 12 kts 139°
2026-05-09 13:14 45.02677 39.17255 109 ft 8 kts 142°
2026-05-09 13:16 45.02944 39.17940 113 ft 92 kts 53°
2026-05-09 13:16 45.03445 39.18855 117 ft 141 kts 52°
2026-05-09 13:16 45.04124 39.20116 198 ft 174 kts 54°
2026-05-09 13:16 45.04853 39.21504 706 ft 177 kts 54°
2026-05-09 13:17 45.05584 39.22906 1305 ft 176 kts 52°
2026-05-09 13:17 45.06315 39.24305 1835 ft 179 kts 57°
2026-05-09 13:17 45.06538 39.26006 2319 ft 182 kts 105°
2026-05-09 13:17 45.05858 39.27463 2899 ft 180 kts 142°
2026-05-09 13:18 45.04750 39.28323 3313 ft 191 kts 168°
2026-05-09 13:18 45.03380 39.28117 3449 ft 214 kts 212°
2026-05-09 13:18 45.02301 39.26529 3931 ft 236 kts 234°
2026-05-09 13:18 45.01317 39.24529 4709 ft 258 kts 234°
2026-05-09 13:19 45.00253 39.22436 5526 ft 271 kts 232°
2026-05-09 13:19 44.99105 39.20279 6584 ft 277 kts 231°
2026-05-09 13:19 44.97921 39.18091 7622 ft 282 kts 231°
2026-05-09 13:19 44.96717 39.15872 8710 ft 287 kts 231°
2026-05-09 13:20 44.95498 39.13621 9788 ft 291 kts 231°
2026-05-09 13:20 44.94255 39.11317 10593 ft 304 kts 231°
2026-05-09 13:20 44.92921 39.08842 11023 ft 329 kts 231°
2026-05-09 13:20 44.91488 39.06180 11381 ft 353 kts 232°
2026-05-09 13:21 44.89978 39.03371 12018 ft 364 kts 232°
2026-05-09 13:21 44.88439 39.00503 12926 ft 367 kts 232°
2026-05-09 13:21 44.86885 38.97606 13779 ft 373 kts 232°
2026-05-09 13:21 44.85306 38.94672 14599 ft 377 kts 232°
2026-05-09 13:22 44.83862 38.91993 15313 ft 381 kts 232°
2026-05-09 13:22 44.82252 38.89011 16075 ft 385 kts 232°
2026-05-09 13:22 44.80492 38.86155 16666 ft 387 kts 222°
2026-05-09 13:23 44.70265 38.82781 18710 ft 402 kts 166°
2026-05-09 13:23 44.67550 38.83802 19170 ft 405 kts 165°
2026-05-09 13:24 44.64821 38.84826 19620 ft 407 kts 165°
2026-05-09 13:24 44.62078 38.85850 20065 ft 410 kts 165°
2026-05-09 13:24 44.59308 38.86879 20493 ft 413 kts 165°
2026-05-09 13:24 44.56518 38.87914 20907 ft 416 kts 165°
2026-05-09 13:25 44.53750 38.88940 21312 ft 418 kts 165°
2026-05-09 13:25 44.50931 38.89984 21718 ft 421 kts 165°
2026-05-09 13:25 44.45231 38.92094 22496 ft 426 kts 165°
2026-05-09 13:26 44.42355 38.93157 22887 ft 428 kts 165°
2026-05-09 13:26 44.39464 38.94225 23265 ft 431 kts 165°
2026-05-09 13:26 44.36556 38.95298 23627 ft 433 kts 165°
2026-05-09 13:26 44.33637 38.96374 23937 ft 435 kts 165°
2026-05-09 13:27 44.30691 38.97419 24215 ft 438 kts 166°
2026-05-09 13:27 44.27719 38.98395 24496 ft 440 kts 167°
2026-05-09 13:27 44.24715 38.99290 24764 ft 443 kts 169°
2026-05-09 13:27 44.21678 39.00056 25042 ft 445 kts 170°
2026-05-09 13:28 44.18626 39.00826 25314 ft 447 kts 167°
2026-05-09 13:28 44.15659 39.02106 25573 ft 448 kts 156°
2026-05-09 13:28 44.12909 39.04158 25852 ft 450 kts 145°
2026-05-09 13:28 44.10471 39.06880 26124 ft 451 kts 135°
2026-05-09 13:29 44.08329 39.10074 26381 ft 452 kts 132°
2026-05-09 13:29 44.06175 39.13278 26639 ft 454 kts 133°
2026-05-09 13:29 44.03957 39.16424 26907 ft 456 kts 135°
2026-05-09 13:29 44.01646 39.19458 27156 ft 458 kts 137°
2026-05-09 13:30 43.99277 39.22422 27388 ft 460 kts 137°
2026-05-09 13:30 43.96894 39.25396 27623 ft 462 kts 137°
2026-05-09 13:30 43.94531 39.28427 27840 ft 463 kts 135°
2026-05-09 13:30 43.92416 39.31798 28046 ft 464 kts 124°
2026-05-09 13:31 43.90740 39.35619 28247 ft 465 kts 115°
2026-05-09 13:31 43.89513 39.39710 28444 ft 465 kts 107°
2026-05-09 13:31 43.88564 39.44004 28634 ft 466 kts 106°
2026-05-09 13:31 43.87607 39.48307 28820 ft 468 kts 106°
2026-05-09 13:32 43.86635 39.52614 29041 ft 468 kts 106°
2026-05-09 13:32 43.84718 39.61225 29584 ft 467 kts 104°
2026-05-09 13:32 43.83869 39.65565 29864 ft 466 kts 103°
2026-05-09 13:33 43.83038 39.69897 30133 ft 466 kts 104°
2026-05-09 13:33 43.82170 39.74219 30356 ft 466 kts 105°
2026-05-09 13:33 43.81248 39.78527 30560 ft 466 kts 105°
2026-05-09 13:33 43.80282 39.82810 30772 ft 466 kts 107°
2026-05-09 13:34 43.79376 39.87105 30991 ft 465 kts 101°
2026-05-09 13:34 43.78904 39.91523 31199 ft 463 kts 91°
2026-05-09 13:34 43.78974 39.95962 31402 ft 461 kts 82°
2026-05-09 13:34 43.79502 40.00324 31620 ft 460 kts 77°
2026-05-09 13:35 43.80066 40.04687 31842 ft 460 kts 79°
2026-05-09 13:35 43.80548 40.09056 32068 ft 460 kts 80°
2026-05-09 13:35 43.81012 40.13444 32296 ft 459 kts 80°
2026-05-09 13:35 43.81492 40.17811 32511 ft 459 kts 79°
2026-05-09 13:36 43.82004 40.22166 32721 ft 459 kts 79°
2026-05-09 13:36 43.82551 40.26513 32937 ft 458 kts 78°
2026-05-09 13:36 43.83136 40.30792 33147 ft 457 kts 77°
2026-05-09 13:36 43.83738 40.35122 33362 ft 457 kts 77°
2026-05-09 13:37 43.84326 40.39454 33585 ft 457 kts 78°
2026-05-09 13:37 43.84888 40.43776 33795 ft 456 kts 78°
2026-05-09 13:37 43.85429 40.48106 33994 ft 456 kts 78°
2026-05-09 13:37 43.85957 40.52443 34190 ft 456 kts 79°
2026-05-09 13:38 43.86478 40.56770 34363 ft 456 kts 79°
2026-05-09 13:38 43.87000 40.61100 34537 ft 456 kts 79°
2026-05-09 13:38 43.87524 40.65435 34711 ft 456 kts 79°
2026-05-09 13:38 43.88128 40.69742 34877 ft 454 kts 73°
2026-05-09 13:39 43.89140 40.73880 35018 ft 452 kts 65°
2026-05-09 13:39 43.90395 40.77878 35138 ft 452 kts 65°
2026-05-09 13:39 43.91647 40.81876 35271 ft 453 kts 65°
2026-05-09 13:39 43.92899 40.85894 35400 ft 453 kts 65°
2026-05-09 13:40 43.94141 40.89904 35540 ft 453 kts 65°
2026-05-09 13:40 43.95381 40.93918 35672 ft 452 kts 65°
2026-05-09 13:40 43.96619 40.97932 35803 ft 452 kts 65°
2026-05-09 13:40 43.97856 41.01949 35933 ft 452 kts 65°
2026-05-09 13:41 43.99093 41.05968 36061 ft 452 kts 65°
2026-05-09 13:41 44.00326 41.09980 36183 ft 452 kts 65°
2026-05-09 13:41 44.01556 41.13995 36318 ft 451 kts 65°
2026-05-09 13:41 44.02780 41.18001 36441 ft 451 kts 65°
2026-05-09 13:42 44.04008 41.22020 36565 ft 451 kts 65°
2026-05-09 13:42 44.05224 41.26037 36697 ft 450 kts 66°
2026-05-09 13:42 44.06428 41.30046 36823 ft 450 kts 66°
2026-05-09 13:42 44.07634 41.34059 36952 ft 449 kts 65°
2026-05-09 13:43 44.08835 41.38059 37097 ft 448 kts 66°
2026-05-09 13:43 44.10020 41.42009 37126 ft 450 kts 66°
2026-05-09 13:43 44.11571 41.50461 37120 ft 455 kts 84°
2026-05-09 13:44 44.11511 41.59282 37118 ft 457 kts 90°
2026-05-09 13:44 44.11405 41.68116 37118 ft 457 kts 89°
2026-05-09 13:45 44.11303 41.76956 37113 ft 457 kts 90°
2026-05-09 13:45 44.11078 41.85801 37121 ft 457 kts 91°
2026-05-09 13:46 44.10779 41.94644 37121 ft 458 kts 92°
2026-05-09 13:46 44.10298 42.03483 37124 ft 458 kts 93°
2026-05-09 13:47 44.09901 42.12205 37126 ft 458 kts 91°
2026-05-09 13:47 44.09893 42.18010 37040 ft 455 kts 89°
2026-05-09 13:48 44.09688 42.26843 37119 ft 459 kts 92°
2026-05-09 13:48 44.09253 42.35700 37129 ft 459 kts 92°
2026-05-09 13:49 44.08875 42.44570 37132 ft 459 kts 91°
2026-05-09 13:49 44.08582 42.53438 37130 ft 459 kts 91°
2026-05-09 13:50 44.08302 42.62323 37134 ft 459 kts 91°
2026-05-09 13:50 44.08037 42.69890 37125 ft 459 kts 92°
2026-05-09 13:51 44.07701 42.78758 37125 ft 459 kts 92°
2026-05-09 13:51 44.07381 42.87644 37124 ft 459 kts 92°
2026-05-09 13:52 44.07053 42.96512 37122 ft 459 kts 92°
2026-05-09 13:52 44.06711 43.05396 37121 ft 460 kts 92°
2026-05-09 13:53 44.06364 43.14218 37122 ft 460 kts 92°
2026-05-09 13:53 44.06007 43.23099 37126 ft 460 kts 92°
2026-05-09 13:54 44.05645 43.31985 37115 ft 460 kts 92°
2026-05-09 13:54 44.05393 43.38053 37107 ft 460 kts 92°
2026-05-09 13:55 44.05056 43.46016 37102 ft 460 kts 92°
2026-05-09 13:55 44.04675 43.54899 37092 ft 460 kts 92°
2026-05-09 13:56 44.04289 43.63782 37088 ft 461 kts 92°
2026-05-09 13:56 44.03896 43.72653 37081 ft 461 kts 93°
2026-05-09 13:57 44.03561 43.80072 37083 ft 461 kts 93°
2026-05-09 13:57 44.03087 43.90402 37082 ft 461 kts 93°
2026-05-09 13:58 44.02671 43.99306 37086 ft 461 kts 93°
2026-05-09 13:58 44.02317 44.06756 37091 ft 461 kts 93°
2026-05-09 13:59 44.01892 44.15589 37099 ft 461 kts 93°
2026-05-09 13:59 44.01457 44.24482 37103 ft 461 kts 93°
2026-05-09 14:00 44.01089 44.31883 37108 ft 461 kts 93°
2026-05-09 14:00 44.00565 44.42268 37112 ft 461 kts 93°
2026-05-09 14:01 44.00109 44.51171 37115 ft 461 kts 94°
2026-05-09 14:01 43.99646 44.60060 37119 ft 461 kts 94°
2026-05-09 14:02 43.99176 44.68947 37120 ft 461 kts 94°
2026-05-09 14:02 43.98699 44.77830 37116 ft 461 kts 94°
2026-05-09 14:03 43.98228 44.86483 37117 ft 461 kts 94°
2026-05-09 14:03 43.97870 44.95144 37114 ft 461 kts 92°
2026-05-09 14:04 43.97555 45.03985 37114 ft 461 kts 92°
2026-05-09 14:04 43.97093 45.12871 37108 ft 461 kts 94°
2026-05-09 14:05 43.96546 45.21755 37108 ft 462 kts 94°
2026-05-09 14:05 43.95997 45.30639 37117 ft 462 kts 94°
2026-05-09 14:06 43.95467 45.39519 37116 ft 462 kts 94°
2026-05-09 14:06 43.94939 45.48403 37113 ft 462 kts 94°
2026-05-09 14:07 43.94398 45.57292 37114 ft 462 kts 94°
2026-05-09 14:07 43.93848 45.66158 37108 ft 462 kts 94°
2026-05-09 14:08 43.93289 45.75038 37112 ft 462 kts 94°
2026-05-09 14:08 43.92724 45.83909 37111 ft 462 kts 94°
2026-05-09 14:09 43.92374 45.92793 37109 ft 461 kts 89°
2026-05-09 14:09 43.92388 46.01682 37107 ft 461 kts 89°
2026-05-09 14:10 43.92390 46.14961 37101 ft 461 kts 89°
2026-05-09 14:11 43.92321 46.23908 37100 ft 461 kts 91°
2026-05-09 14:11 43.92146 46.32741 37097 ft 461 kts 90°
2026-05-09 14:12 43.92065 46.41631 37092 ft 461 kts 89°
2026-05-09 14:12 43.92061 46.50524 37089 ft 461 kts 89°
2026-05-09 14:13 43.92055 46.59417 37089 ft 461 kts 89°
2026-05-09 14:15 43.91846 46.94805 37080 ft 461 kts 90°
2026-05-09 14:15 43.91778 47.03693 37077 ft 461 kts 90°
2026-05-09 14:16 43.91705 47.12535 37073 ft 461 kts 90°
2026-05-09 14:16 43.91624 47.21440 37073 ft 461 kts 90°
2026-05-09 14:17 43.91535 47.30341 37067 ft 461 kts 90°
2026-05-09 14:17 43.91439 47.39253 37074 ft 462 kts 90°
2026-05-09 14:18 43.91220 47.57558 37071 ft 462 kts 90°
2026-05-09 14:19 43.91104 47.66408 37070 ft 463 kts 90°
2026-05-09 14:19 43.90980 47.75333 37070 ft 463 kts 90°
2026-05-09 14:20 43.90849 47.84256 37074 ft 463 kts 90°
2026-05-09 14:20 43.90711 47.93178 37069 ft 463 kts 90°
2026-05-09 14:21 43.90491 48.06562 37069 ft 463 kts 91°
2026-05-09 14:21 43.90337 48.15479 37071 ft 463 kts 91°
2026-05-09 14:22 43.90174 48.24422 37069 ft 463 kts 91°
2026-05-09 14:22 43.90003 48.33361 37074 ft 463 kts 91°
2026-05-09 14:23 43.89945 48.36325 37074 ft 463 kts 91°
2026-05-09 14:24 43.89469 48.59384 37075 ft 463 kts 91°
2026-05-09 14:24 43.89273 48.68301 37076 ft 463 kts 91°
2026-05-09 14:25 43.89070 48.77233 37073 ft 463 kts 91°
2026-05-09 14:25 43.88859 48.86153 37080 ft 463 kts 91°
2026-05-09 14:26 43.88641 48.95081 37077 ft 463 kts 91°
2026-05-09 14:26 43.88418 49.03983 37076 ft 462 kts 91°
2026-05-09 14:27 43.88187 49.12886 37070 ft 462 kts 91°
2026-05-09 14:27 43.87951 49.21718 37071 ft 462 kts 92°
2026-05-09 14:28 43.87674 49.30613 37075 ft 462 kts 92°
2026-05-09 14:28 43.87371 49.39516 37074 ft 462 kts 92°
2026-05-09 14:29 43.87672 49.48367 37075 ft 460 kts 77°
2026-05-09 14:29 43.89902 49.56629 37067 ft 457 kts 59°